• In Netherlands
  • List of Countries
  • For 7 days
  • Water Temperature
  • Satellite Maps
  • Weather Map
  • Weather Widgets
  • user-avatar
    Login

    Hourly Weather Gomel

    Today, 24 July, Monday

    Time Temperature Precipitation Wind Pressure Humidity
    00:00 +16°C° 0 mm 1 mps 751 mmHg 76%
    01:00 +16°C° 0 mm 1 mps 750 mmHg 78%
    02:00 +16°C° 0 mm 1 mps 750 mmHg 79%
    03:00 +16°C° 0 mm 2 mps 750 mmHg 79%
    04:00 +16°C° 0 mm 2 mps 750 mmHg 80%
    05:00 +15°C° 0 mm 2 mps 750 mmHg 81%
    06:00 +17°C° 0 mm 2 mps 749 mmHg 76%
    07:00 +19°C° 0 mm 2 mps 749 mmHg 72%
    08:00 +21°C° 0 mm 2 mps 749 mmHg 67%
    09:00 +23°C° 0 mm 2 mps 749 mmHg 63%
    10:00 +24°C° 0 mm 3 mps 749 mmHg 60%
    11:00 +25°C° 0 mm 3 mps 748 mmHg 56%
    12:00 +25°C° 0 mm 3 mps 748 mmHg 58%
    13:00 +25°C° 0 mm 2 mps 748 mmHg 59%
    14:00 +25°C° 0 mm 2 mps 747 mmHg 61%
    15:00 +25°C° 0 mm 2 mps 747 mmHg 62%
    16:00 +25°C° 0 mm 2 mps 747 mmHg 64%
    17:00 +25°C° 0 mm 2 mps 747 mmHg 65%
    18:00 +24°C° 0 mm 3 mps 746 mmHg 69%
    19:00 +22°C° 0 mm 3 mps 746 mmHg 73%
    20:00 +21°C° 0 mm 3 mps 746 mmHg 76%
    21:00 +20°C° 0 mm 3 mps 746 mmHg 78%
    22:00 +19°C° 0 mm 3 mps 745 mmHg 79%
    23:00 +19°C° 0 mm 3 mps 745 mmHg 80%

    Tomorrow, 25 July, Tuesday

    Time Temperature Precipitation Wind Pressure Humidity
    00:00 +19°C° 0 mm 3 mps 745 mmHg 79%
    01:00 +19°C° 0 mm 4 mps 745 mmHg 77%
    02:00 +19°C° 0 mm 4 mps 745 mmHg 76%
    03:00 +18°C° 0 mm 3 mps 745 mmHg 76%
    04:00 +18°C° 0 mm 3 mps 745 mmHg 77%
    05:00 +18°C° 0 mm 3 mps 745 mmHg 77%
    06:00 +20°C° 0 mm 3 mps 744 mmHg 74%
    07:00 +21°C° 0 mm 3 mps 744 mmHg 70%
    08:00 +22°C° 0 mm 4 mps 744 mmHg 67%
    09:00 +25°C° 0 mm 4 mps 744 mmHg 64%
    10:00 +26°C° 0 mm 4 mps 744 mmHg 61%
    11:00 +27°C° 0 mm 4 mps 744 mmHg 58%
    12:00 +28°C° 0.2 mm 4 mps 743 mmHg 57%
    13:00 +29°C° 0.2 mm 4 mps 743 mmHg 56%
    14:00 +30°C° 0.2 mm 4 mps 743 mmHg 55%
    15:00 +30°C° 0.1 mm 4 mps 743 mmHg 56%
    16:00 +29°C° 0.1 mm 4 mps 742 mmHg 58%
    17:00 +29°C° 0.1 mm 4 mps 742 mmHg 59%
    18:00 +28°C° 0.1 mm 4 mps 742 mmHg 64%
    19:00 +26°C° 0.1 mm 4 mps 742 mmHg 68%
    20:00 +25°C° 0.1 mm 4 mps 742 mmHg 73%
    21:00 +23°C° 0.1 mm 4 mps 742 mmHg 74%
    22:00 +22°C° 0.1 mm 4 mps 742 mmHg 74%
    23:00 +22°C° 0.1 mm 4 mps 742 mmHg 75%

    Day after tomorrow, 26 July, Wednesday

    Time Temperature Precipitation Wind Pressure Humidity
    00:00 +21°C° 0.2 mm 4 mps 742 mmHg 77%
    01:00 +21°C° 0.2 mm 4 mps 742 mmHg 78%
    02:00 +20°C° 0.2 mm 4 mps 742 mmHg 80%
    03:00 +20°C° 0 mm 4 mps 742 mmHg 80%
    04:00 +19°C° 0 mm 4 mps 741 mmHg 81%
    05:00 +19°C° 0 mm 3 mps 741 mmHg 82%
    06:00 +21°C° 0 mm 4 mps 741 mmHg 78%
    07:00 +22°C° 0 mm 4 mps 741 mmHg 74%
    08:00 +25°C° 0 mm 4 mps 741 mmHg 70%
    09:00 +27°C° 0 mm 5 mps 741 mmHg 63%
    10:00 +28°C° 0 mm 5 mps 741 mmHg 57%
    11:00 +30°C° 0 mm 5 mps 741 mmHg 50%
    12:00 +32°C° 0 mm 5 mps 741 mmHg 49%
    13:00 +32°C° 0 mm 5 mps 741 mmHg 48%
    14:00 +33°C° 0 mm 6 mps 741 mmHg 48%
    15:00 +32°C° 0.2 mm 5 mps 741 mmHg 53%
    16:00 +30°C° 0.2 mm 5 mps 741 mmHg 59%
    17:00 +29°C° 0.2 mm 4 mps 741 mmHg 64%
    18:00 +27°C° 0.2 mm 4 mps 741 mmHg 71%
    19:00 +25°C° 0.2 mm 3 mps 742 mmHg 78%
    20:00 +24°C° 0.2 mm 2 mps 742 mmHg 85%
    21:00 +23°C° 0.1 mm 2 mps 742 mmHg 88%
    22:00 +21°C° 0.1 mm 2 mps 742 mmHg 90%
    23:00 +20°C° 0.1 mm 2 mps 743 mmHg 93%

    27 July, Thursday

    Time Temperature Precipitation Wind Pressure Humidity
    00:00 +21°C° 0 mm 1 mps 743 mmHg 93%
    01:00 +20°C° 0 mm 1 mps 743 mmHg 94%
    02:00 +20°C° 0 mm 1 mps 743 mmHg 94%
    03:00 +20°C° 0 mm 1 mps 743 mmHg 95%
    04:00 +19°C° 0 mm 1 mps 743 mmHg 95%
    05:00 +19°C° 0 mm 1 mps 744 mmHg 95%
    06:00 +21°C° 0 mm 1 mps 744 mmHg 89%
    07:00 +22°C° 0 mm 1 mps 744 mmHg 83%
    08:00 +24°C° 0 mm 1 mps 744 mmHg 76%
    09:00 +26°C° 0 mm 1 mps 744 mmHg 70%
    10:00 +27°C° 0 mm 1 mps 744 mmHg 64%
    11:00 +29°C° 0 mm 1 mps 744 mmHg 57%
    12:00 +29°C° 0 mm 1 mps 744 mmHg 55%
    13:00 +30°C° 0 mm 1 mps 744 mmHg 54%
    14:00 +28°C° 0 mm 0 mps 744 mmHg 52%
    15:00 +28°C° 0 mm 0 mps 744 mmHg 54%
    16:00 +27°C° 0 mm 0 mps 744 mmHg 55%
    17:00 +27°C° 0 mm 0 mps 744 mmHg 57%
    18:00 +27°C° 0.3 mm 1 mps 744 mmHg 63%
    19:00 +26°C° 0.3 mm 1 mps 744 mmHg 68%
    20:00 +24°C° 0.3 mm 1 mps 745 mmHg 74%
    21:00 +24°C° 1.1 mm 2 mps 745 mmHg 78%
    22:00 +23°C° 1.1 mm 2 mps 745 mmHg 82%
    23:00 +21°C° 1.1 mm 2 mps 745 mmHg 86%

    28 July, Friday

    Time Temperature Precipitation Wind Pressure Humidity
    00:00 +21°C° 0.1 mm 2 mps 745 mmHg 88%
    01:00 +21°C° 0.1 mm 2 mps 745 mmHg 90%
    02:00 +20°C° 0.1 mm 2 mps 745 mmHg 91%
    03:00 +20°C° 0 mm 2 mps 745 mmHg 92%
    04:00 +20°C° 0 mm 2 mps 745 mmHg 92%
    05:00 +20°C° 0 mm 2 mps 745 mmHg 92%
    06:00 +22°C° 0.1 mm 3 mps 744 mmHg 88%
    07:00 +24°C° 0.1 mm 3 mps 744 mmHg 83%
    08:00 +26°C° 0.1 mm 3 mps 744 mmHg 78%
    09:00 +27°C° 0.2 mm 3 mps 744 mmHg 74%
    10:00 +28°C° 0.2 mm 4 mps 744 mmHg 69%
    11:00 +29°C° 0.2 mm 4 mps 744 mmHg 65%
    12:00 +29°C° 0.4 mm 3 mps 744 mmHg 67%
    13:00 +29°C° 0.4 mm 3 mps 743 mmHg 69%
    14:00 +28°C° 0.4 mm 3 mps 743 mmHg 70%
    15:00 +29°C° 0.3 mm 3 mps 743 mmHg 69%
    16:00 +29°C° 0.3 mm 2 mps 743 mmHg 68%
    17:00 +29°C° 0.3 mm 2 mps 743 mmHg 67%
    18:00 +28°C° 1.1 mm 2 mps 743 mmHg 73%
    19:00 +26°C° 1.1 mm 2 mps 743 mmHg 79%
    20:00 +24°C° 1.1 mm 2 mps 743 mmHg 85%
    21:00 +24°C° 0.7 mm 2 mps 743 mmHg 86%
    22:00 +23°C° 0.7 mm 2 mps 743 mmHg 88%
    23:00 +21°C° 0.7 mm 2 mps 744 mmHg 89%

    29 July, Saturday

    Time Temperature Precipitation Wind Pressure Humidity
    00:00 +21°C° 0.4 mm 2 mps 743 mmHg 90%
    01:00 +21°C° 0.4 mm 1 mps 743 mmHg 91%
    02:00 +21°C° 0.4 mm 1 mps 743 mmHg 92%
    03:00 +21°C° 0.1 mm 1 mps 743 mmHg 92%
    04:00 +21°C° 0.1 mm 1 mps 743 mmHg 92%
    05:00 +19°C° 0.1 mm 2 mps 743 mmHg 92%
    06:00 +20°C° 1 mm 2 mps 743 mmHg 92%
    07:00 +21°C° 1 mm 2 mps 743 mmHg 91%
    08:00 +21°C° 1 mm 2 mps 743 mmHg 90%
    09:00 +23°C° 1.2 mm 2 mps 743 mmHg 87%
    10:00 +24°C° 1.2 mm 2 mps 743 mmHg 84%
    11:00 +25°C° 1.2 mm 2 mps 743 mmHg 80%
    12:00 +25°C° 1.3 mm 3 mps 743 mmHg 81%
    13:00 +24°C° 1.3 mm 3 mps 743 mmHg 81%
    14:00 +24°C° 1.3 mm 3 mps 743 mmHg 81%
    15:00 +24°C° 0 mm 3 mps 743 mmHg 81%
    16:00 +22°C° 0 mm 3 mps 742 mmHg 81%
    17:00 +22°C° 0 mm 4 mps 742 mmHg 81%
    18:00 +21°C° 0.1 mm 4 mps 742 mmHg 85%
    19:00 +20°C° 0.1 mm 4 mps 742 mmHg 88%
    20:00 +19°C° 0.1 mm 3 mps 743 mmHg 92%
    21:00 +19°C° 0.3 mm 4 mps 743 mmHg 93%
    22:00 +19°C° 0.3 mm 4 mps 743 mmHg 94%
    23:00 +19°C° 0.3 mm 4 mps 743 mmHg 96%
    Show more